Location: Москва
(55.7518°N, 37.5952°E)
Time: 05:37:17
(UTC+03:00)

ISS - Pass Details

Date: 03 February 2021
Orbit: 417 x 422 km, 51.6° (Epoch: 17 May)

Event Time Altitude Azimuth Distance (km) Brightness Sun altitude
Rises 19:07:17 0° 273° (W) 2,376 1.8 -16.8°
Reaches altitude 10° 19:10:04 10° 248° (WSW) 1,510 0.2 -17.1°
Maximum altitude 19:12:00 14° 213° (SSW) 1,264 -0.9 -17.4°
Drops below altitude 10° 19:13:55 10° 178° (S) 1,507 -0.9 -17.7°
Enters shadow 19:15:01 - 166° (SSE) 1,805 -0.7 -17.8°
